User: anonymous   Login
Location: Unspecified
(0.0000°N, 0.0000°E)
Time: 19:13:59
(UTC+00:00)
Language:

STARLINK-11708 [DTC] - Orbit

View from above orbital plane
View from above orbital plane
View from above satellite
View from above satellite

Ground track
Ground track

The orbit is defined by the following mean orbital elements,

1 64238U          26145.26265006 +.00000000 +00000-0 +12465-2 0 00001
2 64238  42.9998 107.9167 0001748 275.6978  84.3691 15.70895825    02
Epoch (UTC): 25 May 2026 06:18:12
Eccentricity: 0.0001748
inclination: 42.9998°
perigee height: 355 km
apogee height: 358 km
right ascension of ascending node: 107.9167°
argument of perigee: 275.6978°
revolutions per day: 15.70895825
mean anomaly at epoch: 84.3691°

The dashed part of the orbit path shows where the satellite is in the earth's shadow,  

DLR